Regional Weather Roundup
Issued by NWS

Home | Current Version | Previous Version | Graphics & Text | Print | Product List | Glossary Off
Versions: 1 2 3 4 5 6 7 8 9 10 11 12 13 14 15 16 17 18 19 20 21 22 23 24 25 26 27 28 29 30 31 32 33 34 35 36 37 38 39 40 41 42 43 44 45 46 47 48 49 50

719
ASUS43 KTOP 031659
RWRKS

WEATHER ROUNDUP FOR KANSAS
NATIONAL WEATHER SERVICE GOODLAND KS
1100 AM CST SAT DEC 03 2016

NOTE:  "FAIR" INDICATES FEW OR NO CLOUDS BELOW 12,000 FEET WITH NO
SIGNIFICANT WEATHER AND/OR OBSTRUCTIONS TO VISIBILITY.

KSZ001>006-013>018-027>032-041>047-031800-
NORTHWEST KANSAS

CITY           SKY/WX    TMP DP  RH WIND       PRES   REMARKS
GOODLAND       CLOUDY    35  26  69 S12       30.09F WCI  27
HAYS           LGT SNOW  33  31  92 NE6       30.20F FOG
HILL CITY      CLOUDY    32  31  96 SE6       30.19F FOG
RUSSELL        LGT SNOW  32  31  96 N6        30.20F FOG
$$

KSZ061>065-074>080-084>089-031800-
SOUTHWEST KANSAS

CITY           SKY/WX    TMP DP  RH WIND       PRES   REMARKS
DODGE CITY     MIX PCPN  33  32  96 NE3       30.17F FOG
ELKHART          N/A     31  26  82 SE3         N/A
GARDEN CITY    CLOUDY    34  32  92 SE6       30.14F FOG
GREAT BEND     LGT RAIN  36  31  82 SE7       30.21R
LIBERAL        CLOUDY    36  30  80 SE5       30.16S
$$

KSZ066>073-081>083-090>101-031800-
SOUTHEAST KANSAS

CITY           SKY/WX    TMP DP  RH WIND       PRES   REMARKS
CHANUTE        CLOUDY    49  33  54 SE9       30.24S
COFFEYVILLE    CLOUDY    52  36  54 S7        30.24S
HUTCHINSON     CLOUDY    38  34  85 SE7       30.21S
MEDICINE LODGE   N/A     39  34  82 S7        30.20F
NEWTON         CLOUDY    39  32  76 SE10      30.21F WCI  32
PARSONS        CLOUDY    51  34  52 S6        30.25S
WICHITA INTL   CLOUDY    41  32  70 S3        30.22S
WICHITA JABRA  CLOUDY    41  31  67 SE5       30.21F
WINFIELD       CLOUDY    45  30  55 CALM      30.23S
$$

KSZ007>012-019>026-033>040-048>060-102>105-031800-
NORTHEAST KANSAS

CITY           SKY/WX    TMP DP  RH WIND       PRES   REMARKS
CONCORDIA      LGT SNOW  34  31  88 E3        30.25F FOG
EMPORIA        CLOUDY    43  28  55 SE14      30.21F
LAWRENCE       CLOUDY    43  33  68 E8        30.27F
MANHATTAN      CLOUDY    37  30  75 NE7       30.25F
OLATHE IND     CLOUDY    44  29  55 SE10      30.28S
OLATHE EXE     CLOUDY    43  28  55 SE12      30.28S
SALINA         CLOUDY    39  30  70 E6        30.23S
TOPEKA BILLARD CLOUDY    42  31  64 E10       30.26F
TOPEKA FORBES  CLOUDY    44  29  55 E13       30.25F
$$




USA.gov is the U.S. government's official web portal to all federal, state and local government web resources and services.